{"data":{"norad_id":44850,"epoch":"2026-09-18T09:53:22.900704Z","epoch_age_seconds":194859,"freshness":"STALE","line1":"1 44850U 19088A   26261.41207061  .00000021  00000+0  00000+0 0  9996","line2":"2 44850  65.6225  70.6223 0012069 244.9635 114.9418  2.13103007 52709","mean_motion":2.13103007,"eccentricity":0.0012069,"inclination_deg":65.6225,"raan_deg":70.6223,"arg_perigee_deg":244.9635,"mean_anomaly_deg":114.9418,"bstar":0,"rev_number":5270,"period_min":675.72955458109,"perigee_km":19099.021532447,"apogee_km":19160.592607844,"semimajor_km":25507.944070145,"source":"CELESTRAK","updated_at":"2026-09-20T09:00:46.278196Z"}}